Time,TemperatureF,DewpointF,PressureIn,WindDirection,WindDirectionDegrees,WindSpeedMPH,WindSpeedGustMPH,Humidity,HourlyPrecipIn,Conditions,Clouds,dailyrainin,SoftwareType,DateUTC
2013-02-08 00:00:00,34.9,32.8,30.07,NW,315,0.0,0.0,92,0.00,,,0.00,WUHU216HW,2013-02-08 08:00:00,
2013-02-08 00:05:00,34.9,32.8,30.07,NW,315,0.0,0.0,92,0.00,,,0.00,WUHU216HW,2013-02-08 08:05:00,
2013-02-08 00:10:00,34.7,32.9,30.08,NNW,338,0.0,0.0,93,0.00,,,0.00,WUHU216HW,2013-02-08 08:10:00,
2013-02-08 00:15:00,34.9,33.0,30.08,North,0,0.0,0.0,93,0.00,,,0.00,WUHU216HW,2013-02-08 08:15:00,
2013-02-08 00:20:00,35.1,33.5,30.08,NW,315,0.0,1.1,94,0.00,,,0.00,WUHU216HW,2013-02-08 08:20:00,
2013-02-08 00:25:00,35.3,33.7,30.09,NNW,338,0.2,1.1,94,0.00,,,0.00,WUHU216HW,2013-02-08 08:25:00,
2013-02-08 00:30:00,35.5,34.1,30.09,North,0,0.4,1.1,95,0.00,,,0.00,WUHU216HW,2013-02-08 08:30:00,
2013-02-08 00:35:00,35.6,34.3,30.09,NNE,23,1.1,1.1,95,0.00,,,0.00,WUHU216HW,2013-02-08 08:35:00,
2013-02-08 00:40:00,35.6,34.3,30.09,North,0,0.4,1.3,95,0.00,,,0.00,WUHU216HW,2013-02-08 08:40:00,
2013-02-08 00:45:00,35.8,34.5,30.09,North,0,0.4,1.3,95,0.00,,,0.00,WUHU216HW,2013-02-08 08:45:00,
2013-02-08 00:50:00,35.8,34.5,30.09,NNE,23,0.4,1.1,95,0.00,,,0.00,WUHU216HW,2013-02-08 08:50:00,
2013-02-08 00:55:00,35.8,34.5,30.09,North,0,0.2,1.1,95,0.00,,,0.00,WUHU216HW,2013-02-08 08:55:00,
2013-02-08 01:00:00,35.8,34.5,30.09,North,0,0.4,0.9,95,0.00,,,0.00,WUHU216HW,2013-02-08 09:00:00,
2013-02-08 01:05:00,35.6,34.3,30.09,NNE,23,0.0,0.7,95,0.00,,,0.00,WUHU216HW,2013-02-08 09:05:00,
2013-02-08 01:10:00,35.6,34.0,30.09,NNE,23,0.0,0.7,94,0.00,,,0.00,WUHU216HW,2013-02-08 09:10:00,
2013-02-08 01:15:00,35.5,33.8,30.09,NNE,23,0.0,0.2,94,0.00,,,0.00,WUHU216HW,2013-02-08 09:15:00,
2013-02-08 01:20:00,35.3,33.7,30.09,NNE,23,0.0,0.0,94,0.00,,,0.00,WUHU216HW,2013-02-08 09:20:00,
2013-02-08 01:25:00,34.9,33.3,30.09,NNE,23,0.0,0.0,94,0.00,,,0.00,WUHU216HW,2013-02-08 09:25:00,
2013-02-08 01:30:00,34.9,33.3,30.09,NNE,23,0.0,0.0,94,0.00,,,0.00,WUHU216HW,2013-02-08 09:30:00,
2013-02-08 01:35:00,34.6,32.9,30.09,NNE,23,0.0,0.2,94,0.00,,,0.00,WUHU216HW,2013-02-08 09:35:00,
2013-02-08 01:40:00,34.2,32.6,30.10,NNE,23,0.0,0.2,94,0.00,,,0.00,WUHU216HW,2013-02-08 09:40:00,
2013-02-08 01:45:00,34.0,32.4,30.10,NNE,23,0.0,0.2,94,0.00,,,0.00,WUHU216HW,2013-02-08 09:45:00,
2013-02-08 01:50:00,33.8,32.2,30.10,NE,45,0.0,0.0,94,0.00,,,0.00,WUHU216HW,2013-02-08 09:50:00,
2013-02-08 01:55:00,33.5,31.6,30.10,NE,45,0.0,0.0,93,0.00,,,0.00,WUHU216HW,2013-02-08 09:55:00,
2013-02-08 02:00:00,33.5,31.6,30.10,ENE,68,0.0,0.2,93,0.00,,,0.00,WUHU216HW,2013-02-08 10:00:00,
2013-02-08 02:05:00,33.5,31.6,30.10,ENE,68,0.0,0.2,93,0.00,,,0.00,WUHU216HW,2013-02-08 10:05:00,
2013-02-08 02:10:00,33.3,31.4,30.10,ENE,68,0.0,0.2,93,0.00,,,0.00,WUHU216HW,2013-02-08 10:10:00,
2013-02-08 02:15:00,33.3,31.4,30.11,ENE,68,0.0,0.2,93,0.00,,,0.00,WUHU216HW,2013-02-08 10:15:00,
2013-02-08 02:20:00,33.5,31.6,30.10,ENE,68,0.4,1.1,93,0.00,,,0.00,WUHU216HW,2013-02-08 10:20:00,
2013-02-08 02:25:00,33.8,32.2,30.11,ENE,68,0.2,1.1,94,0.00,,,0.00,WUHU216HW,2013-02-08 10:25:00,
2013-02-08 02:30:00,33.8,32.2,30.11,ENE,68,0.4,0.9,94,0.00,,,0.00,WUHU216HW,2013-02-08 10:30:00,
2013-02-08 02:35:00,34.0,32.4,30.11,ENE,68,0.0,0.9,94,0.00,,,0.00,WUHU216HW,2013-02-08 10:35:00,
2013-02-08 02:40:00,34.2,32.6,30.11,ENE,68,0.0,0.4,94,0.00,,,0.00,WUHU216HW,2013-02-08 10:40:00,
2013-02-08 02:45:00,34.2,32.6,30.12,ENE,68,0.0,0.2,94,0.00,,,0.00,WUHU216HW,2013-02-08 10:45:00,
2013-02-08 02:50:00,34.2,32.9,30.12,ENE,68,0.0,0.2,95,0.00,,,0.00,WUHU216HW,2013-02-08 10:50:00,
2013-02-08 02:55:00,34.4,33.0,30.12,ENE,68,0.0,0.2,95,0.00,,,0.00,WUHU216HW,2013-02-08 10:55:00,
2013-02-08 03:00:00,34.4,33.0,30.12,NE,45,0.0,0.4,95,0.00,,,0.00,WUHU216HW,2013-02-08 11:00:00,
2013-02-08 03:05:00,34.4,33.0,30.11,ENE,68,0.4,0.9,95,0.00,,,0.00,WUHU216HW,2013-02-08 11:05:00,
2013-02-08 03:10:00,34.6,33.2,30.11,ENE,68,0.4,0.9,95,0.00,,,0.00,WUHU216HW,2013-02-08 11:10:00,
2013-02-08 03:15:00,34.6,33.2,30.11,ENE,68,0.0,0.4,95,0.00,,,0.00,WUHU216HW,2013-02-08 11:15:00,
2013-02-08 03:20:00,34.7,33.4,30.11,ENE,68,0.0,0.4,95,0.00,,,0.00,WUHU216HW,2013-02-08 11:20:00,
2013-02-08 03:25:00,34.7,33.4,30.11,ENE,68,0.0,0.2,95,0.00,,,0.00,WUHU216HW,2013-02-08 11:25:00,
2013-02-08 03:30:00,34.9,33.6,30.10,ENE,68,0.0,0.0,95,0.00,,,0.00,WUHU216HW,2013-02-08 11:30:00,
2013-02-08 03:35:00,34.9,33.6,30.10,NNE,23,0.4,0.4,95,0.00,,,0.00,WUHU216HW,2013-02-08 11:35:00,
2013-02-08 03:40:00,35.1,33.8,30.10,NNE,23,0.0,0.4,95,0.00,,,0.00,WUHU216HW,2013-02-08 11:40:00,
2013-02-08 03:45:00,35.1,33.5,30.11,NNE,23,0.0,0.4,94,0.00,,,0.00,WUHU216HW,2013-02-08 11:45:00,
2013-02-08 03:50:00,35.3,34.2,30.11,NW,315,0.0,0.2,96,0.00,,,0.00,WUHU216HW,2013-02-08 11:50:00,
2013-02-08 03:55:00,35.3,33.9,30.11,NW,315,0.2,0.2,95,0.00,,,0.00,WUHU216HW,2013-02-08 11:55:00,
2013-02-08 04:00:00,35.3,34.2,30.11,NW,315,0.0,0.2,96,0.00,,,0.00,WUHU216HW,2013-02-08 12:00:00,
2013-02-08 04:05:00,35.3,34.2,30.11,North,0,0.4,1.1,96,0.00,,,0.00,WUHU216HW,2013-02-08 12:05:00,
2013-02-08 04:10:00,35.5,34.4,30.12,NNE,23,0.2,1.1,96,0.00,,,0.00,WUHU216HW,2013-02-08 12:10:00,
2013-02-08 04:15:00,35.6,34.6,30.12,North,0,0.0,1.1,96,0.00,,,0.00,WUHU216HW,2013-02-08 12:15:00,
2013-02-08 04:20:00,35.6,34.6,30.12,North,0,0.0,1.1,96,0.00,,,0.00,WUHU216HW,2013-02-08 12:20:00,
2013-02-08 04:25:00,35.6,34.6,30.12,NW,315,0.2,0.7,96,0.00,,,0.00,WUHU216HW,2013-02-08 12:25:00,
2013-02-08 04:30:00,35.6,34.6,30.12,NNW,338,0.0,0.2,96,0.00,,,0.00,WUHU216HW,2013-02-08 12:30:00,
2013-02-08 04:35:00,35.6,34.6,30.12,NW,315,0.0,0.2,96,0.00,,,0.00,WUHU216HW,2013-02-08 12:35:00,
2013-02-08 04:40:00,35.6,34.6,30.13,NW,315,0.0,0.2,96,0.00,,,0.00,WUHU216HW,2013-02-08 12:40:00,
2013-02-08 04:45:00,35.6,34.6,30.13,NW,315,0.2,0.2,96,0.00,,,0.00,WUHU216HW,2013-02-08 12:45:00,
2013-02-08 04:50:00,35.6,34.6,30.13,WNW,293,0.0,0.4,96,0.00,,,0.00,WUHU216HW,2013-02-08 12:50:00,
2013-02-08 04:55:00,35.6,34.6,30.13,WNW,293,0.0,0.4,96,0.00,,,0.00,WUHU216HW,2013-02-08 12:55:00,
2013-02-08 05:00:00,35.6,34.6,30.13,WNW,293,0.0,0.2,96,0.00,,,0.00,WUHU216HW,2013-02-08 13:00:00,
2013-02-08 05:05:00,35.6,34.6,30.13,NW,315,0.0,0.4,96,0.00,,,0.00,WUHU216HW,2013-02-08 13:05:00,
2013-02-08 05:10:00,35.6,34.6,30.13,NNW,338,0.0,0.4,96,0.00,,,0.00,WUHU216HW,2013-02-08 13:10:00,
2013-02-08 05:15:00,35.8,34.7,30.13,North,0,0.7,0.7,96,0.00,,,0.00,WUHU216HW,2013-02-08 13:15:00,
2013-02-08 05:20:00,35.6,34.6,30.13,North,0,0.2,2.5,96,0.00,,,0.00,WUHU216HW,2013-02-08 13:20:00,
2013-02-08 05:25:00,35.8,34.7,30.13,North,0,0.2,2.5,96,0.00,,,0.00,WUHU216HW,2013-02-08 13:25:00,
2013-02-08 05:30:00,35.6,34.6,30.13,NW,315,0.0,0.7,96,0.00,,,0.00,WUHU216HW,2013-02-08 13:30:00,
2013-02-08 05:35:00,35.8,34.7,30.14,North,0,0.2,0.2,96,0.00,,,0.00,WUHU216HW,2013-02-08 13:35:00,
2013-02-08 05:40:00,35.6,34.6,30.14,NNE,23,1.1,1.8,96,0.00,,,0.00,WUHU216HW,2013-02-08 13:40:00,
2013-02-08 05:45:00,35.6,34.6,30.14,North,0,0.0,1.8,96,0.00,,,0.00,WUHU216HW,2013-02-08 13:45:00,
2013-02-08 05:50:00,35.8,34.7,30.15,NNW,338,1.6,2.0,96,0.00,,,0.00,WUHU216HW,2013-02-08 13:50:00,
2013-02-08 05:55:00,35.6,34.6,30.15,NNE,23,0.4,2.0,96,0.00,,,0.00,WUHU216HW,2013-02-08 13:55:00,
2013-02-08 06:00:00,35.6,34.6,30.15,North,0,0.7,2.0,96,0.00,,,0.00,WUHU216HW,2013-02-08 14:00:00,
2013-02-08 06:05:00,35.6,34.6,30.15,NNE,23,1.1,2.0,96,0.00,,,0.00,WUHU216HW,2013-02-08 14:05:00,
2013-02-08 06:10:00,35.6,34.6,30.15,North,0,0.9,2.0,96,0.00,,,0.00,WUHU216HW,2013-02-08 14:10:00,
2013-02-08 06:15:00,35.6,34.6,30.15,North,0,0.9,1.3,96,0.00,,,0.00,WUHU216HW,2013-02-08 14:15:00,
2013-02-08 06:20:00,35.6,34.6,30.15,ENE,68,0.0,3.4,96,0.00,,,0.00,WUHU216HW,2013-02-08 14:20:00,
2013-02-08 06:25:00,35.6,34.6,30.15,North,0,0.2,3.4,96,0.00,,,0.00,WUHU216HW,2013-02-08 14:25:00,
2013-02-08 06:30:00,35.5,34.4,30.16,North,0,0.9,1.3,96,0.00,,,0.00,WUHU216HW,2013-02-08 14:30:00,
2013-02-08 06:35:00,35.5,34.4,30.16,NNE,23,1.6,1.6,96,0.00,,,0.00,WUHU216HW,2013-02-08 14:35:00,
2013-02-08 06:40:00,35.3,34.2,30.16,NNE,23,0.4,1.8,96,0.00,,,0.00,WUHU216HW,2013-02-08 14:40:00,
2013-02-08 06:45:00,35.3,34.2,30.16,NNE,23,0.4,1.8,96,0.00,,,0.00,WUHU216HW,2013-02-08 14:45:00,
2013-02-08 06:50:00,35.1,33.8,30.17,NNE,23,0.4,1.3,95,0.00,,,0.00,WUHU216HW,2013-02-08 14:50:00,
2013-02-08 06:55:00,35.1,33.8,30.17,North,0,1.8,1.8,95,0.00,,,0.00,WUHU216HW,2013-02-08 14:55:00,
2013-02-08 07:00:00,34.9,33.6,30.17,NE,45,1.1,1.8,95,0.00,,,0.00,WUHU216HW,2013-02-08 15:00:00,
2013-02-08 07:05:00,34.9,33.6,30.17,North,0,0.4,3.1,95,0.00,,,0.00,WUHU216HW,2013-02-08 15:05:00,
2013-02-08 07:10:00,34.9,33.6,30.17,NNE,23,0.7,3.1,95,0.00,,,0.00,WUHU216HW,2013-02-08 15:10:00,
2013-02-08 07:15:00,34.9,33.6,30.17,NNE,23,2.0,2.5,95,0.00,,,0.00,WUHU216HW,2013-02-08 15:15:00,
2013-02-08 07:20:00,34.7,33.7,30.17,NE,45,0.0,2.5,96,0.00,,,0.00,WUHU216HW,2013-02-08 15:20:00,
2013-02-08 07:25:00,34.7,33.7,30.17,NNE,23,1.8,2.0,96,0.00,,,0.00,WUHU216HW,2013-02-08 15:25:00,
2013-02-08 07:30:00,34.7,33.7,30.17,NNE,23,0.7,2.2,96,0.00,,,0.00,WUHU216HW,2013-02-08 15:30:00,
2013-02-08 07:35:00,34.7,33.7,30.16,ENE,68,0.4,2.2,96,0.00,,,0.00,WUHU216HW,2013-02-08 15:35:00,
2013-02-08 07:40:00,34.9,33.8,30.17,NNE,23,1.6,4.0,96,0.00,,,0.00,WUHU216HW,2013-02-08 15:40:00,
2013-02-08 07:45:00,34.9,33.8,30.17,North,0,2.2,4.0,96,0.00,,,0.00,WUHU216HW,2013-02-08 15:45:00,
2013-02-08 07:50:00,34.9,33.8,30.18,North,0,0.7,2.5,96,0.00,,,0.00,WUHU216HW,2013-02-08 15:50:00,
2013-02-08 07:55:00,35.1,34.0,30.18,NNE,23,0.2,2.5,96,0.00,,,0.00,WUHU216HW,2013-02-08 15:55:00,
2013-02-08 08:00:00,35.3,34.5,30.18,WSW,248,0.0,2.5,97,0.00,,,0.00,WUHU216HW,2013-02-08 16:00:00,
2013-02-08 08:05:00,35.3,34.5,30.18,North,0,0.9,2.5,97,0.00,,,0.00,WUHU216HW,2013-02-08 16:05:00,
2013-02-08 08:10:00,35.3,34.2,30.18,North,0,0.7,1.1,96,0.00,,,0.00,WUHU216HW,2013-02-08 16:10:00,
2013-02-08 08:15:00,35.5,34.4,30.19,North,0,1.1,1.3,96,0.00,,,0.00,WUHU216HW,2013-02-08 16:15:00,
2013-02-08 08:20:00,35.5,34.4,30.19,SW,225,0.0,1.3,96,0.00,,,0.00,WUHU216HW,2013-02-08 16:20:00,
2013-02-08 08:25:00,35.6,34.6,30.18,North,0,0.2,0.4,96,0.00,,,0.00,WUHU216HW,2013-02-08 16:25:00,
2013-02-08 08:30:00,35.6,34.6,30.18,SSW,203,0.4,1.1,96,0.00,,,0.00,WUHU216HW,2013-02-08 16:30:00,
2013-02-08 08:35:00,35.8,34.7,30.18,NW,315,0.4,1.1,96,0.00,,,0.00,WUHU216HW,2013-02-08 16:35:00,
2013-02-08 08:40:00,35.8,34.7,30.18,North,0,0.9,1.8,96,0.00,,,0.00,WUHU216HW,2013-02-08 16:40:00,
2013-02-08 08:45:00,35.8,34.7,30.19,North,0,0.4,1.8,96,0.00,,,0.00,WUHU216HW,2013-02-08 16:45:00,
2013-02-08 08:50:00,35.8,34.7,30.19,North,0,0.0,1.1,96,0.00,,,0.00,WUHU216HW,2013-02-08 16:50:00,
2013-02-08 08:55:00,36.0,34.9,30.19,North,0,0.0,0.4,96,0.00,,,0.00,WUHU216HW,2013-02-08 16:55:00,
2013-02-08 09:00:00,36.4,35.3,30.19,WNW,293,0.4,0.4,96,0.00,,,0.00,WUHU216HW,2013-02-08 17:00:00,
2013-02-08 09:05:00,36.9,35.8,30.20,NNW,338,0.4,0.4,96,0.00,,,0.00,WUHU216HW,2013-02-08 17:05:00,
2013-02-08 09:10:00,37.1,36.0,30.20,NNW,338,0.0,1.1,96,0.00,,,0.00,WUHU216HW,2013-02-08 17:10:00,
2013-02-08 09:15:00,36.9,35.8,30.20,NW,315,0.0,1.1,96,0.00,,,0.00,WUHU216HW,2013-02-08 17:15:00,
2013-02-08 09:20:00,37.1,36.0,30.20,WSW,248,0.4,0.7,96,0.00,,,0.00,WUHU216HW,2013-02-08 17:20:00,
2013-02-08 09:25:00,37.4,36.4,30.21,West,270,0.0,0.9,96,0.00,,,0.00,WUHU216HW,2013-02-08 17:25:00,
2013-02-08 09:30:00,37.4,35.8,30.21,NW,315,0.2,0.9,94,0.00,,,0.00,WUHU216HW,2013-02-08 17:30:00,
2013-02-08 09:35:00,37.3,35.9,30.21,NNW,338,0.0,1.1,95,0.00,,,0.00,WUHU216HW,2013-02-08 17:35:00,
2013-02-08 09:40:00,37.4,36.1,30.22,WSW,248,0.2,1.1,95,0.00,,,0.00,WUHU216HW,2013-02-08 17:40:00,
2013-02-08 09:45:00,37.3,35.6,30.22,WSW,248,0.2,1.1,94,0.00,,,0.00,WUHU216HW,2013-02-08 17:45:00,
2013-02-08 09:50:00,37.3,35.6,30.22,NNW,338,0.0,1.1,94,0.00,,,0.00,WUHU216HW,2013-02-08 17:50:00,
2013-02-08 09:55:00,37.1,35.5,30.22,SSW,203,0.2,3.1,94,0.00,,,0.00,WUHU216HW,2013-02-08 17:55:00,
2013-02-08 10:00:00,36.7,35.1,30.22,North,0,0.2,3.1,94,0.00,,,0.00,WUHU216HW,2013-02-08 18:00:00,
2013-02-08 10:05:00,37.1,35.5,30.22,North,0,0.0,0.9,94,0.00,,,0.00,WUHU216HW,2013-02-08 18:05:00,
2013-02-08 10:11:00,37.1,35.5,30.22,ENE,68,0.0,1.1,94,0.00,,,0.00,WUHU216HW,2013-02-08 18:11:00,
2013-02-08 10:16:00,37.1,35.2,30.22,NNE,23,1.1,3.1,93,0.00,,,0.00,WUHU216HW,2013-02-08 18:16:00,
2013-02-08 10:21:00,37.1,35.5,30.22,West,270,0.2,3.1,94,0.00,,,0.00,WUHU216HW,2013-02-08 18:21:00,
2013-02-08 10:26:00,37.3,35.4,30.23,North,0,1.6,1.8,93,0.00,,,0.00,WUHU216HW,2013-02-08 18:26:00,
2013-02-08 10:31:00,37.3,35.4,30.23,North,0,3.1,3.1,93,0.00,,,0.00,WUHU216HW,2013-02-08 18:31:00,
2013-02-08 10:36:00,37.4,35.0,30.23,NNE,23,1.8,6.3,91,0.00,,,0.00,WUHU216HW,2013-02-08 18:36:00,
2013-02-08 10:41:00,37.4,35.0,30.23,NNE,23,2.0,6.3,91,0.00,,,0.00,WUHU216HW,2013-02-08 18:41:00,
2013-02-08 10:46:00,37.6,35.2,30.23,NNE,23,2.2,5.4,91,0.00,,,0.00,WUHU216HW,2013-02-08 18:46:00,
2013-02-08 10:51:00,37.6,35.2,30.23,NE,45,0.9,4.0,91,0.00,,,0.00,WUHU216HW,2013-02-08 18:51:00,
2013-02-08 10:56:00,37.8,35.4,30.23,NNE,23,0.2,4.0,91,0.00,,,0.00,WUHU216HW,2013-02-08 18:56:00,
2013-02-08 11:01:00,38.2,35.5,30.23,NNE,23,0.9,2.5,90,0.00,,,0.00,WUHU216HW,2013-02-08 19:01:00,
2013-02-08 11:06:00,38.3,35.6,30.23,NNE,23,1.1,2.5,90,0.00,,,0.00,WUHU216HW,2013-02-08 19:06:00,
2013-02-08 11:11:00,38.5,35.8,30.22,SE,135,0.4,1.8,90,0.00,,,0.00,WUHU216HW,2013-02-08 19:11:00,
2013-02-08 11:16:00,38.5,35.8,30.23,NNE,23,0.9,2.2,90,0.00,,,0.00,WUHU216HW,2013-02-08 19:16:00,
2013-02-08 11:21:00,38.5,35.8,30.22,SSW,203,0.2,2.2,90,0.00,,,0.00,WUHU216HW,2013-02-08 19:21:00,
2013-02-08 11:26:00,38.9,36.2,30.23,NW,315,0.2,1.6,90,0.00,,,0.00,WUHU216HW,2013-02-08 19:26:00,
2013-02-08 11:31:00,39.2,36.3,30.23,NNE,23,0.4,1.8,89,0.00,,,0.00,WUHU216HW,2013-02-08 19:31:00,
2013-02-08 11:36:00,39.4,36.2,30.23,NNE,23,1.8,2.2,88,0.00,,,0.00,WUHU216HW,2013-02-08 19:36:00,
2013-02-08 11:41:00,39.8,36.8,30.23,North,0,1.8,2.2,89,0.00,,,0.00,WUHU216HW,2013-02-08 19:41:00,
2013-02-08 11:46:00,40.0,36.6,30.22,WSW,248,0.4,4.0,88,0.00,,,0.00,WUHU216HW,2013-02-08 19:46:00,
2013-02-08 11:51:00,40.0,36.4,30.23,NW,315,0.4,4.0,87,0.00,,,0.00,WUHU216HW,2013-02-08 19:51:00,
2013-02-08 11:56:00,40.3,36.5,30.22,SSW,203,0.9,2.9,86,0.00,,,0.00,WUHU216HW,2013-02-08 19:56:00,
2013-02-08 12:01:00,40.3,36.5,30.22,NNE,23,1.1,3.1,86,0.00,,,0.00,WUHU216HW,2013-02-08 20:01:00,
2013-02-08 12:06:00,40.7,37.1,30.22,NNW,338,0.0,3.1,87,0.00,,,0.00,WUHU216HW,2013-02-08 20:06:00,
2013-02-08 12:11:00,41.0,37.1,30.22,West,270,0.4,0.9,86,0.00,,,0.00,WUHU216HW,2013-02-08 20:11:00,
2013-02-08 12:16:00,40.9,36.6,30.22,NNE,23,2.5,2.5,85,0.00,,,0.00,WUHU216HW,2013-02-08 20:16:00,
2013-02-08 12:21:00,40.9,37.3,30.22,West,270,0.2,4.0,87,0.00,,,0.00,WUHU216HW,2013-02-08 20:21:00,
2013-02-08 12:26:00,41.8,38.2,30.21,West,270,0.7,4.0,87,0.00,,,0.00,WUHU216HW,2013-02-08 20:26:00,
2013-02-08 12:31:00,42.3,38.1,30.21,NNE,23,1.1,1.6,85,0.00,,,0.00,WUHU216HW,2013-02-08 20:31:00,
2013-02-08 12:36:00,41.8,37.5,30.21,SSW,203,0.4,1.6,85,0.00,,,0.00,WUHU216HW,2013-02-08 20:36:00,
2013-02-08 12:41:00,42.5,37.6,30.21,West,270,1.1,4.0,83,0.00,,,0.00,WUHU216HW,2013-02-08 20:41:00,
2013-02-08 12:46:00,42.8,37.7,30.21,WNW,293,1.1,4.0,82,0.00,,,0.00,WUHU216HW,2013-02-08 20:46:00,
2013-02-08 12:51:00,42.5,36.7,30.20,North,0,1.6,3.4,80,0.00,,,0.00,WUHU216HW,2013-02-08 20:51:00,
2013-02-08 12:56:00,42.3,36.8,30.20,North,0,1.6,6.0,81,0.00,,,0.00,WUHU216HW,2013-02-08 20:56:00,
2013-02-08 13:01:00,42.8,37.4,30.20,North,0,0.4,6.0,81,0.00,,,0.00,WUHU216HW,2013-02-08 21:01:00,
2013-02-08 13:06:00,42.8,36.7,30.21,NE,45,0.9,6.5,79,0.00,,,0.00,WUHU216HW,2013-02-08 21:06:00,
2013-02-08 13:11:00,43.0,36.6,30.20,NNE,23,4.9,6.5,78,0.00,,,0.00,WUHU216HW,2013-02-08 21:11:00,
2013-02-08 13:16:00,42.7,36.5,30.20,NNE,23,4.7,6.5,79,0.00,,,0.00,WUHU216HW,2013-02-08 21:16:00,
2013-02-08 13:21:00,42.3,36.2,30.20,North,0,2.5,6.5,79,0.00,,,0.00,WUHU216HW,2013-02-08 21:21:00,
2013-02-08 13:26:00,42.7,37.2,30.20,North,0,0.7,5.8,81,0.00,,,0.00,WUHU216HW,2013-02-08 21:26:00,
2013-02-08 13:31:00,43.0,36.9,30.20,West,270,0.2,4.3,79,0.00,,,0.00,WUHU216HW,2013-02-08 21:31:00,
2013-02-08 13:36:00,43.4,37.3,30.20,NNE,23,1.1,4.3,79,0.00,,,0.00,WUHU216HW,2013-02-08 21:36:00,
2013-02-08 13:41:00,43.0,36.9,30.20,NNE,23,1.1,4.5,79,0.00,,,0.00,WUHU216HW,2013-02-08 21:41:00,
2013-02-08 13:46:00,43.2,37.4,30.20,North,0,0.4,4.5,80,0.00,,,0.00,WUHU216HW,2013-02-08 21:46:00,
2013-02-08 13:51:00,44.3,37.5,30.20,North,0,1.3,4.0,77,0.00,,,0.00,WUHU216HW,2013-02-08 21:51:00,
2013-02-08 13:56:00,44.3,37.5,30.20,NNW,338,0.2,4.0,77,0.00,,,0.00,WUHU216HW,2013-02-08 21:56:00,
2013-02-08 14:01:00,44.6,37.5,30.20,NNE,23,0.7,2.0,76,0.00,,,0.00,WUHU216HW,2013-02-08 22:01:00,
2013-02-08 14:06:00,44.5,37.7,30.20,NW,315,1.3,4.9,77,0.00,,,0.00,WUHU216HW,2013-02-08 22:06:00,
2013-02-08 14:11:00,45.0,38.5,30.20,North,0,0.7,4.9,78,0.00,,,0.00,WUHU216HW,2013-02-08 22:11:00,
2013-02-08 14:16:00,45.0,37.2,30.20,NNE,23,2.5,4.7,74,0.00,,,0.00,WUHU216HW,2013-02-08 22:16:00,
2013-02-08 14:21:00,44.3,36.5,30.20,NNE,23,0.4,4.7,74,0.00,,,0.00,WUHU216HW,2013-02-08 22:21:00,
2013-02-08 14:26:00,44.3,37.2,30.20,NNE,23,3.1,3.6,76,0.00,,,0.00,WUHU216HW,2013-02-08 22:26:00,
2013-02-08 14:31:00,44.5,37.4,30.19,NE,45,3.6,3.6,76,0.00,,,0.00,WUHU216HW,2013-02-08 22:31:00,
2013-02-08 14:36:00,44.8,37.0,30.20,NNE,23,4.0,4.0,74,0.00,,,0.00,WUHU216HW,2013-02-08 22:36:00,
2013-02-08 14:41:00,44.6,36.8,30.19,NNE,23,1.8,5.1,74,0.00,,,0.00,WUHU216HW,2013-02-08 22:41:00,
2013-02-08 14:46:00,44.6,36.8,30.19,NNE,23,1.8,6.0,74,0.00,,,0.00,WUHU216HW,2013-02-08 22:46:00,
2013-02-08 14:51:00,45.0,37.5,30.20,NE,45,1.1,6.0,75,0.00,,,0.00,WUHU216HW,2013-02-08 22:51:00,
2013-02-08 14:56:00,45.0,37.9,30.20,ENE,68,1.8,2.7,76,0.00,,,0.00,WUHU216HW,2013-02-08 22:56:00,
2013-02-08 15:01:00,44.5,37.4,30.20,East,90,3.6,4.5,76,0.00,,,0.00,WUHU216HW,2013-02-08 23:01:00,
2013-02-08 15:06:00,44.5,37.4,30.20,NNE,23,2.0,4.7,76,0.00,,,0.00,WUHU216HW,2013-02-08 23:06:00,
2013-02-08 15:11:00,44.5,37.7,30.20,SE,135,1.3,4.7,77,0.00,,,0.00,WUHU216HW,2013-02-08 23:11:00,
2013-02-08 15:16:00,44.8,37.7,30.20,NNE,23,0.2,2.5,76,0.00,,,0.00,WUHU216HW,2013-02-08 23:16:00,
2013-02-08 15:21:00,45.4,37.9,30.20,NE,45,0.7,2.5,75,0.00,,,0.00,WUHU216HW,2013-02-08 23:21:00,
2013-02-08 15:26:00,45.7,38.6,30.20,NE,45,0.4,2.9,76,0.00,,,0.00,WUHU216HW,2013-02-08 23:26:00,
2013-02-08 15:31:00,45.7,38.3,30.20,ENE,68,1.6,2.9,75,0.00,,,0.00,WUHU216HW,2013-02-08 23:31:00,
2013-02-08 15:36:00,45.9,38.4,30.20,ENE,68,0.7,2.7,75,0.00,,,0.00,WUHU216HW,2013-02-08 23:36:00,
2013-02-08 15:41:00,45.7,37.9,30.20,NNE,23,1.3,2.7,74,0.00,,,0.00,WUHU216HW,2013-02-08 23:41:00,
2013-02-08 15:46:00,45.5,38.4,30.20,ENE,68,0.4,2.7,76,0.00,,,0.00,WUHU216HW,2013-02-08 23:46:00,
2013-02-08 15:51:00,45.5,38.1,30.20,ENE,68,1.6,3.1,75,0.00,,,0.00,WUHU216HW,2013-02-08 23:51:00,
2013-02-08 15:56:00,45.4,37.5,30.20,NNE,23,1.8,3.1,74,0.00,,,0.00,WUHU216HW,2013-02-08 23:56:00,
2013-02-08 16:01:00,44.8,37.0,30.20,NNE,23,1.3,3.1,74,0.00,,,0.00,WUHU216HW,2013-02-09 00:01:00,
2013-02-08 16:06:00,44.5,37.0,30.20,NNE,23,1.1,2.7,75,0.00,,,0.00,WUHU216HW,2013-02-09 00:06:00,
2013-02-08 16:11:00,44.3,37.2,30.20,NNE,23,2.0,4.7,76,0.00,,,0.00,WUHU216HW,2013-02-09 00:11:00,
2013-02-08 16:16:00,44.1,37.4,30.20,ENE,68,3.4,4.7,77,0.00,,,0.00,WUHU216HW,2013-02-09 00:16:00,
2013-02-08 16:21:00,44.3,37.5,30.19,North,0,1.6,3.4,77,0.00,,,0.00,WUHU216HW,2013-02-09 00:21:00,
2013-02-08 16:26:00,44.3,37.5,30.19,ENE,68,2.9,3.4,77,0.00,,,0.00,WUHU216HW,2013-02-09 00:26:00,
2013-02-08 16:31:00,44.3,37.5,30.19,NNE,23,0.4,3.4,77,0.00,,,0.00,WUHU216HW,2013-02-09 00:31:00,
2013-02-08 16:36:00,44.3,37.5,30.19,NE,45,1.8,2.9,77,0.00,,,0.00,WUHU216HW,2013-02-09 00:36:00,
2013-02-08 16:41:00,43.9,37.2,30.19,ENE,68,2.0,2.7,77,0.00,,,0.00,WUHU216HW,2013-02-09 00:41:00,
2013-02-08 16:46:00,43.9,37.2,30.20,ENE,68,1.1,3.1,77,0.00,,,0.00,WUHU216HW,2013-02-09 00:46:00,
2013-02-08 16:51:00,43.9,37.2,30.20,NE,45,1.1,3.1,77,0.00,,,0.00,WUHU216HW,2013-02-09 00:51:00,
2013-02-08 16:56:00,43.6,36.8,30.20,NE,45,0.4,2.9,77,0.00,,,0.00,WUHU216HW,2013-02-09 00:56:00,
2013-02-08 17:01:00,43.4,37.0,30.20,NE,45,0.2,1.3,78,0.00,,,0.00,WUHU216HW,2013-02-09 01:01:00,
2013-02-08 17:06:00,43.2,37.1,30.20,NE,45,0.4,1.3,79,0.00,,,0.00,WUHU216HW,2013-02-09 01:06:00,
2013-02-08 17:11:00,43.4,37.3,30.20,ENE,68,0.0,1.3,79,0.00,,,0.00,WUHU216HW,2013-02-09 01:11:00,
2013-02-08 17:16:00,43.6,37.4,30.20,NE,45,0.2,1.1,79,0.00,,,0.00,WUHU216HW,2013-02-09 01:16:00,
2013-02-08 17:21:00,43.4,37.3,30.20,NE,45,0.2,0.9,79,0.00,,,0.00,WUHU216HW,2013-02-09 01:21:00,
2013-02-08 17:26:00,43.2,37.1,30.20,NE,45,0.2,1.1,79,0.00,,,0.00,WUHU216HW,2013-02-09 01:26:00,
2013-02-08 17:31:00,43.2,37.1,30.20,ENE,68,0.4,1.1,79,0.00,,,0.00,WUHU216HW,2013-02-09 01:31:00,
2013-02-08 17:36:00,43.2,37.1,30.20,NNE,23,0.0,0.4,79,0.00,,,0.00,WUHU216HW,2013-02-09 01:36:00,
2013-02-08 17:41:00,43.2,37.1,30.20,NNE,23,0.0,0.4,79,0.00,,,0.00,WUHU216HW,2013-02-09 01:41:00,
2013-02-08 17:46:00,43.2,37.1,30.20,East,90,0.0,0.0,79,0.00,,,0.00,WUHU216HW,2013-02-09 01:46:00,
2013-02-08 17:51:00,43.2,37.4,30.20,East,90,0.0,0.0,80,0.00,,,0.00,WUHU216HW,2013-02-09 01:51:00,
2013-02-08 17:56:00,43.0,37.3,30.20,East,90,0.0,0.0,80,0.00,,,0.00,WUHU216HW,2013-02-09 01:56:00,
2013-02-08 18:01:00,42.7,36.9,30.20,ENE,68,0.0,0.2,80,0.00,,,0.00,WUHU216HW,2013-02-09 02:01:00,
2013-02-08 18:06:00,42.5,36.7,30.20,ENE,68,0.2,0.4,80,0.00,,,0.00,WUHU216HW,2013-02-09 02:06:00,
2013-02-08 18:11:00,42.3,36.5,30.20,ENE,68,0.0,0.4,80,0.00,,,0.00,WUHU216HW,2013-02-09 02:11:00,
2013-02-08 18:16:00,42.3,36.5,30.20,ENE,68,0.0,0.0,80,0.00,,,0.00,WUHU216HW,2013-02-09 02:16:00,
2013-02-08 18:21:00,42.3,36.8,30.20,ENE,68,0.0,0.0,81,0.00,,,0.00,WUHU216HW,2013-02-09 02:21:00,
2013-02-08 18:26:00,42.3,36.8,30.21,ENE,68,0.0,0.0,81,0.00,,,0.00,WUHU216HW,2013-02-09 02:26:00,
2013-02-08 18:31:00,42.5,37.0,30.21,ENE,68,0.0,0.0,81,0.00,,,0.00,WUHU216HW,2013-02-09 02:31:00,
2013-02-08 18:36:00,42.7,37.2,30.21,ENE,68,0.0,0.0,81,0.00,,,0.00,WUHU216HW,2013-02-09 02:36:00,
2013-02-08 18:41:00,42.7,37.2,30.21,ENE,68,0.0,0.0,81,0.00,,,0.00,WUHU216HW,2013-02-09 02:41:00,
2013-02-08 18:46:00,42.7,37.2,30.21,ENE,68,0.0,0.0,81,0.00,,,0.00,WUHU216HW,2013-02-09 02:46:00,
2013-02-08 18:52:00,42.5,37.0,30.21,ENE,68,0.0,0.0,81,0.00,,,0.00,WUHU216HW,2013-02-09 02:52:00,
2013-02-08 18:57:00,42.5,37.4,30.21,ENE,68,0.0,0.0,82,0.00,,,0.00,WUHU216HW,2013-02-09 02:57:00,
2013-02-08 19:02:00,42.3,37.2,30.21,WSW,248,0.2,0.4,82,0.00,,,0.00,WUHU216HW,2013-02-09 03:02:00,
2013-02-08 19:07:00,42.1,37.0,30.21,WSW,248,0.0,0.4,82,0.00,,,0.00,WUHU216HW,2013-02-09 03:07:00,
2013-02-08 19:12:00,41.9,36.8,30.21,WSW,248,0.0,0.2,82,0.00,,,0.00,WUHU216HW,2013-02-09 03:12:00,
2013-02-08 19:17:00,41.6,36.5,30.21,WSW,248,0.0,0.0,82,0.00,,,0.00,WUHU216HW,2013-02-09 03:17:00,
2013-02-08 19:22:00,41.4,36.3,30.21,WSW,248,0.0,0.0,82,0.00,,,0.00,WUHU216HW,2013-02-09 03:22:00,
2013-02-08 19:27:00,41.2,36.4,30.21,WSW,248,0.0,0.0,83,0.00,,,0.00,WUHU216HW,2013-02-09 03:27:00,
2013-02-08 19:32:00,41.2,36.1,30.21,WSW,248,0.0,0.0,82,0.00,,,0.00,WUHU216HW,2013-02-09 03:32:00,
2013-02-08 19:37:00,41.0,35.9,30.21,WSW,248,0.0,0.0,82,0.00,,,0.00,WUHU216HW,2013-02-09 03:37:00,
2013-02-08 19:42:00,41.0,35.9,30.21,WSW,248,0.0,0.0,82,0.00,,,0.00,WUHU216HW,2013-02-09 03:42:00,
2013-02-08 19:47:00,41.0,36.2,30.21,WSW,248,0.0,0.0,83,0.00,,,0.00,WUHU216HW,2013-02-09 03:47:00,
2013-02-08 19:52:00,40.9,36.0,30.21,WSW,248,0.0,0.0,83,0.00,,,0.00,WUHU216HW,2013-02-09 03:52:00,
2013-02-08 19:57:00,40.9,36.0,30.21,WSW,248,0.0,0.0,83,0.00,,,0.00,WUHU216HW,2013-02-09 03:57:00,
2013-02-08 20:02:00,40.9,36.0,30.21,WSW,248,0.0,0.0,83,0.00,,,0.00,WUHU216HW,2013-02-09 04:02:00,
2013-02-08 20:07:00,40.9,36.4,30.21,WSW,248,0.0,0.0,84,0.00,,,0.00,WUHU216HW,2013-02-09 04:07:00,
2013-02-08 20:12:00,40.7,36.2,30.21,WSW,248,0.0,0.0,84,0.00,,,0.00,WUHU216HW,2013-02-09 04:12:00,
2013-02-08 20:17:00,40.7,36.2,30.21,WSW,248,0.0,0.0,84,0.00,,,0.00,WUHU216HW,2013-02-09 04:17:00,
2013-02-08 20:22:00,40.7,36.2,30.21,WNW,293,0.0,0.0,84,0.00,,,0.00,WUHU216HW,2013-02-09 04:22:00,
2013-02-08 20:27:00,40.7,36.2,30.21,NW,315,0.2,0.2,84,0.00,,,0.00,WUHU216HW,2013-02-09 04:27:00,
2013-02-08 20:32:00,40.7,36.5,30.21,WNW,293,0.4,0.4,85,0.00,,,0.00,WUHU216HW,2013-02-09 04:32:00,
2013-02-08 20:37:00,40.7,36.5,30.21,NW,315,0.0,0.4,85,0.00,,,0.00,WUHU216HW,2013-02-09 04:37:00,
2013-02-08 20:42:00,40.7,36.5,30.21,NW,315,0.0,0.4,85,0.00,,,0.00,WUHU216HW,2013-02-09 04:42:00,
2013-02-08 20:47:00,40.7,36.8,30.21,NW,315,0.0,0.2,86,0.00,,,0.00,WUHU216HW,2013-02-09 04:47:00,
2013-02-08 20:52:00,40.7,36.8,30.21,NW,315,0.0,0.0,86,0.00,,,0.00,WUHU216HW,2013-02-09 04:52:00,
2013-02-08 20:57:00,40.7,36.8,30.21,NW,315,0.0,0.2,86,0.00,,,0.00,WUHU216HW,2013-02-09 04:57:00,
2013-02-08 21:00:00,40.7,36.8,30.21,NW,315,0.0,0.2,86,0.00,,,0.00,WUHU216HW,2013-02-09 05:00:00,
2013-02-08 21:05:00,40.7,36.8,30.21,NW,315,0.0,0.2,86,0.00,,,0.00,WUHU216HW,2013-02-09 05:05:00,
2013-02-08 21:10:00,40.7,36.8,30.21,NW,315,0.0,0.0,86,0.00,,,0.00,WUHU216HW,2013-02-09 05:10:00,
2013-02-08 21:15:00,40.7,36.8,30.21,WNW,293,0.0,0.0,86,0.00,,,0.00,WUHU216HW,2013-02-09 05:15:00,
2013-02-08 21:20:00,40.7,37.1,30.21,NW,315,0.0,0.2,87,0.00,,,0.00,WUHU216HW,2013-02-09 05:20:00,
2013-02-08 21:25:00,40.7,37.1,30.21,WNW,293,0.0,0.2,87,0.00,,,0.00,WUHU216HW,2013-02-09 05:25:00,
2013-02-08 21:30:00,40.9,37.3,30.22,NW,315,0.0,0.2,87,0.00,,,0.00,WUHU216HW,2013-02-09 05:30:00,
2013-02-08 21:35:00,41.0,37.5,30.21,NW,315,0.0,0.2,87,0.00,,,0.00,WUHU216HW,2013-02-09 05:35:00,
2013-02-08 21:40:00,40.9,37.3,30.22,West,270,0.0,0.2,87,0.00,,,0.00,WUHU216HW,2013-02-09 05:40:00,
2013-02-08 21:45:00,40.9,37.3,30.22,NNW,338,0.0,0.2,87,0.00,,,0.00,WUHU216HW,2013-02-09 05:45:00,
2013-02-08 21:50:00,40.9,37.3,30.21,NNW,338,0.0,0.4,87,0.00,,,0.00,WUHU216HW,2013-02-09 05:50:00,
2013-02-08 21:55:00,40.9,37.3,30.22,WNW,293,0.0,0.4,87,0.00,,,0.00,WUHU216HW,2013-02-09 05:55:00,
2013-02-08 22:00:00,40.9,37.3,30.21,WNW,293,0.0,0.4,87,0.00,,,0.00,WUHU216HW,2013-02-09 06:00:00,
2013-02-08 22:05:00,40.7,37.1,30.22,WNW,293,0.0,0.4,87,0.00,,,0.00,WUHU216HW,2013-02-09 06:05:00,
2013-02-08 22:10:00,40.7,37.1,30.22,WNW,293,0.0,0.0,87,0.00,,,0.00,WUHU216HW,2013-02-09 06:10:00,
2013-02-08 22:15:00,40.7,37.1,30.22,WNW,293,0.0,0.0,87,0.00,,,0.00,WUHU216HW,2013-02-09 06:15:00,
2013-02-08 22:20:00,40.7,37.1,30.22,WNW,293,0.0,0.0,87,0.00,,,0.00,WUHU216HW,2013-02-09 06:20:00,
2013-02-08 22:25:00,40.7,37.1,30.22,WNW,293,0.0,0.2,87,0.00,,,0.00,WUHU216HW,2013-02-09 06:25:00,
2013-02-08 22:30:00,40.7,37.1,30.22,WNW,293,0.0,0.2,87,0.00,,,0.00,WUHU216HW,2013-02-09 06:30:00,
2013-02-08 22:35:00,40.7,37.4,30.22,WNW,293,0.0,0.2,88,0.00,,,0.00,WUHU216HW,2013-02-09 06:35:00,
2013-02-08 22:40:00,40.7,37.4,30.22,NW,315,0.2,0.2,88,0.00,,,0.00,WUHU216HW,2013-02-09 06:40:00,
2013-02-08 22:45:00,40.7,37.4,30.22,NNW,338,0.0,0.4,88,0.00,,,0.00,WUHU216HW,2013-02-09 06:45:00,
2013-02-08 22:50:00,40.5,37.2,30.22,NW,315,0.0,0.4,88,0.00,,,0.00,WUHU216HW,2013-02-09 06:50:00,
2013-02-08 22:55:00,40.5,37.2,30.22,NNW,338,0.0,0.2,88,0.00,,,0.00,WUHU216HW,2013-02-09 06:55:00,
2013-02-08 23:00:00,40.5,37.2,30.22,NW,315,0.0,0.2,88,0.00,,,0.00,WUHU216HW,2013-02-09 07:00:00,
2013-02-08 23:05:00,40.5,37.2,30.22,NW,315,0.0,0.2,88,0.00,,,0.00,WUHU216HW,2013-02-09 07:05:00,
2013-02-08 23:10:00,40.3,37.0,30.22,ENE,68,0.4,0.7,88,0.00,,,0.00,WUHU216HW,2013-02-09 07:10:00,
2013-02-08 23:15:00,40.5,37.2,30.22,ENE,68,0.2,1.1,88,0.00,,,0.00,WUHU216HW,2013-02-09 07:15:00,
2013-02-08 23:20:00,40.5,37.2,30.22,ENE,68,0.2,1.1,88,0.00,,,0.00,WUHU216HW,2013-02-09 07:20:00,
2013-02-08 23:25:00,40.5,37.2,30.21,NE,45,0.2,1.6,88,0.00,,,0.00,WUHU216HW,2013-02-09 07:25:00,
2013-02-08 23:30:00,40.3,37.0,30.22,NE,45,0.4,1.6,88,0.00,,,0.00,WUHU216HW,2013-02-09 07:30:00,
2013-02-08 23:35:00,40.3,36.7,30.21,NE,45,0.4,0.4,87,0.00,,,0.00,WUHU216HW,2013-02-09 07:35:00,
2013-02-08 23:40:00,40.3,36.7,30.22,NE,45,0.0,0.4,87,0.00,,,0.00,WUHU216HW,2013-02-09 07:40:00,
2013-02-08 23:45:00,40.3,36.7,30.22,NE,45,0.2,0.4,87,0.00,,,0.00,WUHU216HW,2013-02-09 07:45:00,
2013-02-08 23:50:00,40.3,37.0,30.22,NE,45,0.0,0.4,88,0.00,,,0.00,WUHU216HW,2013-02-09 07:50:00,
2013-02-08 23:55:00,40.1,36.8,30.22,ESE,113,0.2,0.4,88,0.00,,,0.00,WUHU216HW,2013-02-09 07:55:00,